Current weather by "City, St" or "zip code"  
 
Advertise Here

Current Conditions: Sweetwater, Avenger Field Airport, TX

Fair


79.0 F

Last Updated on Sep 16 2021, 8:55 pm CDT
Humidity: 43%
Wind Speed: SE 5.8 mph
Barometer 29.96 in
Dewpoint: 54.0 F
Visibility: 10.00 mi
Precip: --
Heat Index: NA
Wind Chill: NA
Current conditions at:

Sweetwater, Avenger Field Airport, TX (KSWW)

Lat: 32.46722 Lon: 100.46639

Local Radar Image active severe weather and emergency alerts image image weather storm and storm spotter reports image weather observation monitoring service image
Local
Radar
Active
Alerts
Storm Reports Obs
Monitoring

Sign-up For Email & Text Message Weather Alert Notification Services



Advertise Here

Observation History for Sweetwater, Avenger Field Airport, TX


Time Wind
(mph)
Vis
(mi)
Weather Precip (in) Temperature (F) Relative
Humidity
Wind
Chill
(F)
Heat
Index
(F)
Pressure
Air Dwpt altimeter
(in)
sea level
(mb)
Rmks
8:55 pm CDT SE 5.8 10.00 Fair -- 79.0 54.0 43% NA NA 29.96 M
7:55 pm CDT SE 5.8 10.00 Fair -- 83.0 53.6 36% NA 82 29.94 M
6:55 pm CDT SE 10.4 10.00 Fair -- 90.0 53.8 30% NA 88 29.93 M
5:55 pm CDT SE 10.4 10.00 Fair -- 92.0 52.7 26% NA 89 29.93 M
4:55 pm CDT SE 8.1 G 16.1 10.00 Fair -- 93.0 53.6 26% NA 91 29.93 M
3:55 pm CDT SE 9.2 10.00 Partly Cloudy -- 93.0 55.8 28% NA 91 29.95 M
2:55 pm CDT S 6.9 10.00 Fair -- 92.0 55.9 30% NA 90 29.97 M
1:55 pm CDT E 3.5 10.00 Fair -- 91.0 56.5 31% NA 89 29.99 M
12:55 pm CDT E 8.1 10.00 Fair -- 89.0 56.7 34% NA 88 30.01 M
11:55 am CDT E 11.5 G 16.1 10.00 Fair -- 85.0 58.8 41% NA 85 30.03 M
10:55 am CDT S 11.5 G 17.3 10.00 Fair -- 83.0 60.1 46% NA 83 30.05 M
9:55 am CDT SE 11.5 10.00 Fair -- 79.0 61.2 55% NA NA 30.05 M
8:55 am CDT S 6.9 10.00 Fair -- 74.0 64.2 72% NA NA 30.04 M
7:55 am CDT S 4.6 10.00 Fair -- 68.0 60.8 77% NA NA 30.03 M
6:55 am CDT S 5.8 10.00 Fair -- 68.0 60.1 76% NA NA 30.01 M
5:55 am CDT SE 8.1 10.00 Fair -- 68.0 60.8 77% NA NA 29.99 M
4:55 am CDT SE 8.1 10.00 Fair -- 70.0 60.8 73% NA NA 29.98 M
3:55 am CDT SE 9.2 10.00 Fair -- 71.0 60.6 71% NA NA 29.99 M
2:55 am CDT SE 10.4 10.00 Fair -- 70.0 60.1 71% NA NA 29.99 M
1:55 am CDT SE 5.8 10.00 Fair -- 72.0 59.4 65% NA NA 30.01 M
12:55 am CDT SE 5.8 10.00 Fair -- 70.0 58.8 67% NA NA 30.02 M
11:55 pm CDT SE 4.6 10.00 Fair -- 72.0 58.1 62% NA NA 30.02 M
10:55 pm CDT SE 4.6 10.00 Fair -- 74.0 58.1 59% NA NA 30.02 M
9:55 pm CDT SE 6.9 10.00 Fair -- 77.0 57.2 51% NA NA 30.01 M

Regional Weather Observation


Sweetwater, Avenger Field Airport, TX (KSWW)

Fair
79.0 F

Big Spring, Big Spring McMahon-Wrinkle Airport, TX (KBPG)

Fair
82.0 F

Abilene, Dyess Air Force Base, TX (KDYS)

Fair
83.0 F

Lamesa Municipal Airport, TX (KLUV)

NULL
79.0 F

Abilene, Abilene Regional Airport, TX (KABI)

Fair
81.0 F

Gregory M Simmons Memorial Airport, TX (KGZN)

Fair
77.0 F
Advertise Here


Advertise Here